Broomfield, CO

8:10 PM MST on February 20, 2017 (GMT -0700)
Jeffco

Weather History for KBJC - November, 2012

Change the Weather History Date:

Sunday, November 11, 2012

  Actual Average Record
Temperature  
Mean Temperature 25 °F -  
Max Temperature 33 °F 50 °F 78 °F (1989)
Min Temperature 17 °F 30 °F 8 °F (2014)
Degree Days  
Heating Degree Days 40    
Moisture  
Dew Point 9 °F    
Average Humidity 58    
Maximum Humidity 93    
Minimum Humidity 23    
Precipitation  
Precipitation 0.00 in - - ()
Sea Level Pressure  
Sea Level Pressure 29.95 in    
Wind  
Wind Speed 9 mph (SW)    
Max Wind Speed 32 mph    
Max Gust Speed 44 mph    
Visibility 11 miles    
Events      
Averages and records for this station are not official NWS values.
T = Trace of Precipitation, MM = Missing Value Source: NWS Daily Summary

Daily Weather History Graph

Daily Weather History Graph

Search for Another Location

Airport or City:

Trip Planner

Search our weather history database for the weather conditions in past years. The results will help you decide how hot, cold, wet, or windy it might be!

Date:

Astronomy

Nov. 11, 2012 Rise Set
Actual Time 6:41 AM MST 4:47 PM MST
Civil Twilight 6:12 AM MST 5:15 PM MST
Nautical Twilight 5:40 AM MST 5:48 PM MST
Astronomical Twilight 5:08 AM MST 6:20 PM MST
Moon 3:58 AM MST (11/11) 3:12 PM MST (11/11)
Length of Visible Light 11h 03m
Length of Day
10h 05m
Waning Crescent, 7% of the Moon is Illuminated
Nov 11
Waning Crescent
Nov 13
New
Nov 20
First Quarter
Nov 28
Full
Dec 6
Last Quarter

Hourly Weather History & Observations

Time (MST) Temp. Windchill Dew Point Humidity Pressure Visibility Wind Dir Wind Speed Gust Speed Precip Events Conditions
12:16 AM 21.2 °F 14.9 °F 17.6 °F 86% 29.82 in 10.0 mi East 4.6 mph - N/A   Overcast
12:35 AM 21.2 °F 14.9 °F 17.6 °F 86% 29.82 in 10.0 mi ESE 4.6 mph - N/A   Overcast
12:56 AM 21.2 °F 14.9 °F 19.4 °F 93% 29.82 in 10.0 mi SE 4.6 mph - N/A   Overcast
1:16 AM 23.0 °F 15.8 °F 19.4 °F 86% 29.82 in 10.0 mi SE 5.8 mph - N/A   Overcast
1:36 AM 23.0 °F 15.8 °F 19.4 °F 86% 29.83 in 10.0 mi SE 5.8 mph - N/A   Overcast
1:56 AM 23.0 °F 17.0 °F 19.4 °F 86% 29.83 in 10.0 mi SE 4.6 mph - N/A   Overcast
2:15 AM 23.0 °F 14.7 °F 17.6 °F 80% 29.84 in 10.0 mi ESE 6.9 mph - N/A   Overcast
2:36 AM 23.0 °F 14.7 °F 17.6 °F 80% 29.84 in 10.0 mi ESE 6.9 mph - N/A   Overcast
2:55 AM 23.0 °F 13.9 °F 19.4 °F 86% 29.84 in 10.0 mi ESE 8.1 mph - N/A   Overcast
3:16 AM 21.2 °F 10.9 °F 17.6 °F 86% 29.85 in 10.0 mi ESE 9.2 mph - N/A   Overcast
3:36 AM 19.4 °F 8.6 °F 15.8 °F 86% 29.85 in 10.0 mi ESE 9.2 mph - N/A   Overcast
3:56 AM 19.4 °F 8.6 °F 14.0 °F 80% 29.86 in 10.0 mi East 9.2 mph - N/A   Overcast
4:36 AM 19.4 °F 12.8 °F 12.2 °F 74% 29.86 in 10.0 mi East 4.6 mph - N/A   Overcast
4:56 AM 19.4 °F 11.5 °F 14.0 °F 80% 29.87 in 10.0 mi East 5.8 mph - N/A   Overcast
6:48 AM 17.6 °F - 10.4 °F 73% 29.88 in 10.0 mi Calm Calm - N/A   Overcast
8:47 AM 19.4 °F 14.3 °F 12.2 °F 74% 29.94 in 60.0 mi NNW 3.5 mph - N/A   Mostly Cloudy
8:56 AM 19.4 °F 14.3 °F 12.2 °F 74% 29.92 in 60.0 mi North 3.5 mph - N/A   Mostly Cloudy
9:47 AM 26.6 °F 18.2 °F 17.6 °F 69% 29.94 in 60.0 mi SW 8.1 mph - N/A   Mostly Cloudy
10:50 AM 32.0 °F 20.1 °F 8.6 °F 38% 29.95 in 60.0 mi West 19.6 mph - N/A   Scattered Clouds
11:50 AM 33.8 °F 23.5 °F 6.8 °F 32% 29.95 in 60.0 mi West 16.1 mph 24.2 mph N/A   Scattered Clouds
2:48 PM 32.0 °F 19.2 °F -0.4 °F 25% 29.97 in 50.0 mi West 23.0 mph - N/A   Scattered Clouds
4:47 PM 28.4 °F 14.4 °F -4.0 °F 25% 30.01 in 30.0 mi West 23.0 mph 29.9 mph N/A   Partly Cloudy
5:47 PM 28.4 °F 16.2 °F -5.8 °F 23% 30.05 in 30.0 mi WNW 17.3 mph 26.5 mph N/A   Partly Cloudy
6:47 PM 28.4 °F 12.5 °F -2.2 °F 27% 30.04 in 30.0 mi West 31.1 mph 43.7 mph N/A   Partly Cloudy
7:47 PM 28.4 °F 16.6 °F -2.2 °F 27% 30.09 in 20.0 mi WNW 16.1 mph 24.2 mph N/A   Partly Cloudy
8:47 PM 28.4 °F 17.5 °F -2.2 °F 27% 30.10 in 20.0 mi West 13.8 mph 40.3 mph N/A   Partly Cloudy
9:45 PM 28.4 °F 19.1 °F -2.2 °F 27% 30.11 in 20.0 mi West 10.4 mph 23.0 mph N/A   Clear
10:16 PM 30.2 °F 18.5 °F -0.4 °F 27% 30.12 in 10.0 mi WNW 17.3 mph 23.0 mph N/A   Clear
10:36 PM 28.4 °F 14.1 °F -0.4 °F 29% 30.12 in 10.0 mi West 24.2 mph 29.9 mph N/A   Clear
10:56 PM 28.4 °F 12.3 °F -0.4 °F 29% 30.12 in 10.0 mi West 32.2 mph 39.1 mph N/A   Clear
11:16 PM 28.4 °F 14.1 °F -0.4 °F 29% 30.13 in 10.0 mi West 24.2 mph 31.1 mph N/A   Clear
11:56 PM 28.4 °F 14.4 °F -2.2 °F 27% 30.13 in 10.0 mi West 23.0 mph 29.9 mph N/A   Clear